Location: Moscow
(55.7500°N, 37.5830°E)
Time: 20:14:03
(UTC+03:00)

ISS - Pass Details

Date: 23 May 2021
Orbit: 417 x 422 km, 51.6° (Epoch: 16 June)

Event Time Altitude Azimuth Distance (km) Brightness Sun altitude
Rises 00:00:58 0° 273° (W) 2,371 0.2 -13.5°
Reaches altitude 10° 00:03:31 10° 254° (WSW) 1,505 -1.1 -13.5°
Enters shadow 00:05:24 17° 220° (SW) 1,139 -2.0 -13.6°
